Location: Newark
(45.0500°N, 41.9667°E)
Time: 01:24:45
(UTC+00:00)

Starlink (trailer) - Pass Details

Date: 27 July 2019
Orbit: 549 x 550 km, 53.0° (Epoch: 20 August)

Event Time Altitude Azimuth Distance (km) Brightness Sun altitude
Rises 00:12:16 0° 298° (WNW) 2,722 7.0 -14.5°
Reaches altitude 10° 00:14:41 10° 309° (NW) 1,828 6.2 -14.2°
Maximum altitude 00:18:25 32° 13° (NNE) 969 5.5 -13.8°
Drops below altitude 10° 00:22:10 10° 78° (ENE) 1,825 7.2 -13.3°
Sets 00:24:35 0° 88° (E) 2,718 7.9 -13.0°
